• In Hungary
  • List of Countries
  • For 7 days
  • Water Temperature
  • Satellite Maps
  • Weather Map
  • News
  • Weather Widgets
  • user-avatar
    Login

    Hourly Weather Ostrozki

    Today, 21 September, Friday

    Time Temperature Precipitation Wind Pressure Humidity
    00:00 +19°C° 0 mm 3 mps 748 mmHg 73%
    01:00 +19°C° 0 mm 3 mps 748 mmHg 73%
    02:00 +19°C° 0 mm 4 mps 747 mmHg 72%
    03:00 +19°C° 0 mm 4 mps 747 mmHg 72%
    04:00 +19°C° 0 mm 4 mps 747 mmHg 71%
    05:00 +20°C° 0 mm 5 mps 746 mmHg 70%
    06:00 +20°C° 0 mm 5 mps 746 mmHg 68%
    07:00 +20°C° 0 mm 5 mps 746 mmHg 69%
    08:00 +22°C° 0 mm 6 mps 746 mmHg 62%
    09:00 +24°C° 0 mm 6 mps 745 mmHg 56%
    10:00 +27°C° 0 mm 7 mps 745 mmHg 50%
    11:00 +28°C° 0 mm 7 mps 745 mmHg 46%
    12:00 +29°C° 0 mm 8 mps 744 mmHg 42%
    13:00 +31°C° 0 mm 8 mps 744 mmHg 38%
    14:00 +29°C° 0 mm 8 mps 743 mmHg 39%
    15:00 +29°C° 0 mm 7 mps 742 mmHg 41%
    16:00 +28°C° 0 mm 7 mps 741 mmHg 43%
    17:00 +27°C° 0.1 mm 7 mps 741 mmHg 45%
    18:00 +26°C° 0.1 mm 8 mps 740 mmHg 48%
    19:00 +24°C° 0.1 mm 8 mps 740 mmHg 50%
    20:00 +21°C° 1.2 mm 8 mps 740 mmHg 61%
    21:00 +18°C° 1.2 mm 8 mps 741 mmHg 71%
    22:00 +16°C° 1.2 mm 8 mps 742 mmHg 82%
    23:00 +15°C° 0.9 mm 7 mps 742 mmHg 79%

    Tomorrow, 22 September, Saturday

    Time Temperature Precipitation Wind Pressure Humidity
    00:00 +14°C° 0.9 mm 7 mps 743 mmHg 76%
    01:00 +13°C° 0.9 mm 6 mps 743 mmHg 74%
    02:00 +11°C° 0 mm 6 mps 744 mmHg 72%
    03:00 +11°C° 0 mm 7 mps 744 mmHg 70%
    04:00 +10°C° 0 mm 7 mps 744 mmHg 68%
    05:00 +10°C° 0 mm 7 mps 745 mmHg 68%
    06:00 +10°C° 0 mm 7 mps 745 mmHg 67%
    07:00 +10°C° 0 mm 8 mps 745 mmHg 67%
    08:00 +11°C° 0 mm 8 mps 746 mmHg 64%
    09:00 +12°C° 0 mm 8 mps 746 mmHg 62%
    10:00 +12°C° 0 mm 8 mps 746 mmHg 60%
    11:00 +14°C° 0.1 mm 7 mps 747 mmHg 60%
    12:00 +14°C° 0.1 mm 7 mps 747 mmHg 60%
    13:00 +14°C° 0.1 mm 7 mps 747 mmHg 59%
    14:00 +14°C° 0.2 mm 7 mps 747 mmHg 59%
    15:00 +14°C° 0.2 mm 6 mps 747 mmHg 59%
    16:00 +14°C° 0.2 mm 6 mps 747 mmHg 58%
    17:00 +13°C° 0.1 mm 6 mps 747 mmHg 63%
    18:00 +11°C° 0.1 mm 6 mps 747 mmHg 68%
    19:00 +10°C° 0.1 mm 5 mps 747 mmHg 73%
    20:00 +10°C° 0 mm 6 mps 747 mmHg 73%
    21:00 +10°C° 0 mm 6 mps 746 mmHg 74%
    22:00 +10°C° 0 mm 6 mps 746 mmHg 74%
    23:00 +9°C° 0 mm 7 mps 746 mmHg 75%

    Day after tomorrow, 23 September, Sunday

    Time Temperature Precipitation Wind Pressure Humidity
    00:00 +9°C° 0 mm 7 mps 746 mmHg 75%
    01:00 +9°C° 0 mm 7 mps 746 mmHg 75%
    02:00 +8°C° 0.1 mm 7 mps 746 mmHg 75%
    03:00 +7°C° 0.1 mm 8 mps 746 mmHg 75%
    04:00 +7°C° 0.1 mm 8 mps 746 mmHg 74%
    05:00 +7°C° 0.1 mm 8 mps 746 mmHg 74%
    06:00 +9°C° 0.1 mm 8 mps 746 mmHg 74%
    07:00 +9°C° 0.1 mm 8 mps 746 mmHg 74%
    08:00 +10°C° 0.1 mm 8 mps 746 mmHg 70%
    09:00 +11°C° 0.1 mm 8 mps 746 mmHg 67%
    10:00 +12°C° 0.1 mm 8 mps 747 mmHg 63%
    11:00 +13°C° 0.1 mm 8 mps 747 mmHg 61%
    12:00 +13°C° 0.1 mm 8 mps 747 mmHg 58%
    13:00 +15°C° 0.1 mm 8 mps 747 mmHg 56%
    14:00 +14°C° 0.2 mm 7 mps 746 mmHg 57%
    15:00 +14°C° 0.2 mm 7 mps 746 mmHg 58%
    16:00 +14°C° 0.2 mm 6 mps 746 mmHg 59%
    17:00 +13°C° 0 mm 6 mps 746 mmHg 63%
    18:00 +12°C° 0 mm 5 mps 745 mmHg 67%
    19:00 +11°C° 0 mm 4 mps 745 mmHg 71%
    20:00 +11°C° 0 mm 3 mps 745 mmHg 72%
    21:00 +10°C° 0 mm 3 mps 744 mmHg 74%
    22:00 +10°C° 0 mm 3 mps 744 mmHg 75%
    23:00 +10°C° 0.1 mm 2 mps 743 mmHg 78%

    24 September, Monday

    Time Temperature Precipitation Wind Pressure Humidity
    00:00 +10°C° 0.1 mm 2 mps 742 mmHg 80%
    01:00 +10°C° 0.1 mm 1 mps 742 mmHg 83%
    02:00 +9°C° 0.5 mm 2 mps 741 mmHg 84%
    03:00 +9°C° 0.5 mm 3 mps 741 mmHg 84%
    04:00 +9°C° 0.5 mm 3 mps 741 mmHg 85%
    05:00 +8°C° 0.4 mm 4 mps 741 mmHg 82%
    06:00 +9°C° 0.4 mm 5 mps 742 mmHg 79%
    07:00 +9°C° 0.4 mm 5 mps 743 mmHg 76%
    08:00 +10°C° 0.1 mm 6 mps 743 mmHg 69%
    09:00 +10°C° 0.1 mm 7 mps 744 mmHg 63%
    10:00 +11°C° 0.1 mm 8 mps 744 mmHg 56%
    11:00 +11°C° 0.4 mm 8 mps 745 mmHg 57%
    12:00 +11°C° 0.4 mm 9 mps 746 mmHg 58%
    13:00 +11°C° 0.4 mm 9 mps 747 mmHg 59%
    14:00 +10°C° 0.3 mm 9 mps 747 mmHg 58%
    15:00 +10°C° 0.3 mm 9 mps 748 mmHg 57%
    16:00 +10°C° 0.3 mm 8 mps 749 mmHg 57%
    17:00 +9°C° 0.1 mm 8 mps 750 mmHg 58%
    18:00 +8°C° 0.1 mm 7 mps 751 mmHg 60%
    19:00 +7°C° 0.1 mm 6 mps 752 mmHg 61%
    20:00 +7°C° 0.2 mm 6 mps 752 mmHg 62%
    21:00 +7°C° 0.2 mm 6 mps 753 mmHg 63%
    22:00 +7°C° 0.2 mm 6 mps 754 mmHg 63%
    23:00 +5°C° 0.2 mm 6 mps 754 mmHg 64%

    25 September, Tuesday

    Time Temperature Precipitation Wind Pressure Humidity
    00:00 +5°C° 0.2 mm 6 mps 755 mmHg 65%
    01:00 +5°C° 0.2 mm 6 mps 755 mmHg 66%
    02:00 +5°C° 0.1 mm 6 mps 755 mmHg 65%
    03:00 +5°C° 0.1 mm 6 mps 756 mmHg 64%
    04:00 +5°C° 0.1 mm 7 mps 756 mmHg 63%
    05:00 +5°C° 0.1 mm 7 mps 757 mmHg 60%
    06:00 +6°C° 0.1 mm 7 mps 758 mmHg 58%
    07:00 +6°C° 0.1 mm 7 mps 758 mmHg 56%
    08:00 +8°C° 0.1 mm 7 mps 759 mmHg 51%
    09:00 +10°C° 0.1 mm 8 mps 759 mmHg 47%
    10:00 +11°C° 0.1 mm 8 mps 760 mmHg 42%
    11:00 +12°C° 0 mm 8 mps 759 mmHg 43%
    12:00 +12°C° 0 mm 8 mps 759 mmHg 44%
    13:00 +14°C° 0 mm 7 mps 759 mmHg 46%
    14:00 +12°C° 0.1 mm 7 mps 759 mmHg 50%
    15:00 +12°C° 0.1 mm 7 mps 759 mmHg 54%
    16:00 +12°C° 0.1 mm 8 mps 759 mmHg 58%
    17:00 +11°C° 0.1 mm 7 mps 758 mmHg 63%
    18:00 +10°C° 0.1 mm 7 mps 758 mmHg 68%
    19:00 +10°C° 0.1 mm 7 mps 758 mmHg 72%
    20:00 +10°C° 0.1 mm 7 mps 758 mmHg 73%
    21:00 +10°C° 0.1 mm 7 mps 758 mmHg 73%
    22:00 +10°C° 0.1 mm 7 mps 758 mmHg 73%
    23:00 +10°C° 0.1 mm 7 mps 757 mmHg 74%

    26 September, Wednesday

    Time Temperature Precipitation Wind Pressure Humidity
    00:00 +10°C° 0.1 mm 7 mps 757 mmHg 75%
    01:00 +10°C° 0.1 mm 7 mps 757 mmHg 76%
    02:00 +10°C° 0.3 mm 7 mps 756 mmHg 76%
    03:00 +10°C° 0.3 mm 8 mps 756 mmHg 76%
    04:00 +10°C° 0.3 mm 8 mps 756 mmHg 76%
    05:00 +10°C° 0.1 mm 8 mps 756 mmHg 75%
    06:00 +10°C° 0.1 mm 8 mps 756 mmHg 73%
    07:00 +10°C° 0.1 mm 8 mps 756 mmHg 72%
    08:00 +11°C° 0.1 mm 8 mps 756 mmHg 72%
    09:00 +11°C° 0.1 mm 8 mps 756 mmHg 71%
    10:00 +12°C° 0.1 mm 8 mps 756 mmHg 70%
    11:00 +12°C° 0.1 mm 8 mps 756 mmHg 70%
    12:00 +12°C° 0.1 mm 8 mps 756 mmHg 71%
    13:00 +12°C° 0.1 mm 8 mps 755 mmHg 71%
    14:00 +12°C° 0.1 mm 8 mps 755 mmHg 72%
    15:00 +11°C° 0.1 mm 7 mps 755 mmHg 74%
    16:00 +11°C° 0.1 mm 7 mps 754 mmHg 75%
    17:00 +11°C° 0.1 mm 7 mps 754 mmHg 75%
    18:00 +11°C° 0.1 mm 6 mps 754 mmHg 75%
    19:00 +11°C° 0.1 mm 6 mps 754 mmHg 75%
    20:00 +11°C° 0 mm 6 mps 754 mmHg 74%
    21:00 +10°C° 0 mm 6 mps 754 mmHg 73%
    22:00 +10°C° 0 mm 6 mps 754 mmHg 71%
    23:00 +10°C° 0 mm 6 mps 754 mmHg 69%
    Show more